This is the latest recevied weather packets stored in our database for station/object KA3BQE-13. If no packets are shown the sender has not sent any weather packets the latest 1 day(s).
| Time | Temp. | Humidity | Pressure | Rain* | Wind** | Luminosity | Snow |
|---|---|---|---|---|---|---|---|
| 1778024316 | 10.56° C | 77% | 1010.9 hPa | 0 mm | 0 m/s | 30 W/m² | - |
| 1778024002 | 10.56° C | 80% | 1011 hPa | 0 mm | 0 m/s | 46 W/m² | - |
| 1778023699 | 10.56° C | 80% | 1011 hPa | 0 mm | 0 m/s | 52 W/m² | - |
| 1778023397 | 10.56° C | 77% | 1011 hPa | 0 mm | 0 m/s | 40 W/m² | - |
| 1778023093 | 10.56° C | 74% | 1010.9 hPa | 0 mm | 0.45 m/s, 277° | 37 W/m² | - |
| 1778022792 | 10.56° C | 77% | 1011 hPa | 0 mm | 0.89 m/s, 225° | 50 W/m² | - |
| 1778022485 | 10.56° C | 78% | 1010.9 hPa | 0 mm | 0.45 m/s, 230° | 54 W/m² | - |
| 1778022181 | 10° C | 75% | 1011 hPa | 0 mm | 0 m/s | 54 W/m² | - |
| 1778021878 | 10° C | 76% | 1010.9 hPa | 0 mm | 0.89 m/s, 232° | 50 W/m² | - |
| 1778021575 | 10° C | 76% | 1010.7 hPa | 0 mm | 0 m/s | 67 W/m² | - |
| 1778021269 | 10° C | 78% | 1010.9 hPa | 0 mm | 0 m/s | 54 W/m² | - |
| 1778020968 | 10.56° C | 80% | 1010.8 hPa | 0 mm | 0 m/s | 74 W/m² | - |
| 1778020665 | 10.56° C | 80% | 1010.5 hPa | 0 mm | 0 m/s | 73 W/m² | - |
| 1778020361 | 10.56° C | 81% | 1010.8 hPa | 0 mm | 0 m/s | 66 W/m² | - |
| 1778020057 | 10.56° C | 81% | 1010.7 hPa | 0 mm | 0 m/s | 94 W/m² | - |
| 1778019754 | 10° C | 79% | 1010.9 hPa | 0 mm | 0 m/s | 103 W/m² | - |
| 1778019451 | 10.56° C | 80% | 1010.7 hPa | 0 mm | 0 m/s | 93 W/m² | - |
| 1778019147 | 10° C | 80% | 1010.9 hPa | 0 mm | 0 m/s | 92 W/m² | - |
| 1778018844 | 10° C | 80% | 1010.4 hPa | 0 mm | 0 m/s | 103 W/m² | - |
| 1778018542 | 10.56° C | 82% | 1010.8 hPa | 0 mm | 0.89 m/s, 14° | 59 W/m² | - |
| 1778018240 | 10.56° C | 77% | 1011 hPa | 0 mm | 0 m/s | 68 W/m² | - |
| 1778017937 | 10.56° C | 79% | 1010.7 hPa | 0 mm | 0.89 m/s, 21° | 96 W/m² | - |
| 1778017635 | 10.56° C | 77% | 1010.7 hPa | 0 mm | 0.45 m/s, 3° | 136 W/m² | - |
| 1778017333 | 10.56° C | 81% | 1010.9 hPa | 0 mm | 0 m/s | 115 W/m² | - |
| 1778017030 | 10.56° C | 80% | 1010.9 hPa | 0 mm | 0 m/s | 143 W/m² | - |
* Rain latest hour (hover to see other rain measurements)
** Current wind speed in m/s (hover to see current wind gust speed)